Location: Caltech
(34.1382°N, 118.1253°W)
Time: 00:31:35
(UTC-07:00)

OAO 2 Rocket - Visible Passes

Search period start: 01 September 2014 00:00
Search period end: 11 September 2014 00:00
Orbit: 678 x 749 km, 35.0° (Epoch: 31 August)

Date Brightness Start Highest point End Pass type
(mag) Time Alt. Az. Time Alt. Az. Time Alt. Az.
01 Sep 5.7 03:17:03 17° E 03:17:03 17° E 03:18:29 10° E visible
01 Sep 3.4 04:56:04 35° WSW 04:58:20 82° SSE 05:03:39 10° E visible
02 Sep 3.8 04:02:08 57° ESE 04:02:08 57° ESE 04:06:32 10° E visible
02 Sep 3.5 05:41:08 12° W 05:46:11 81° N 05:51:30 10° E visible
03 Sep 5.8 03:08:12 17° E 03:08:12 17° E 03:09:23 10° E visible
03 Sep 3.4 04:47:12 42° W 04:49:02 85° N 04:54:23 10° E visible
04 Sep 4.1 03:53:17 51° E 03:53:17 51° E 03:57:15 10° E visible
04 Sep 3.5 05:32:17 14° W 05:36:56 83° N 05:42:15 10° E visible
05 Sep 6.1 02:59:23 14° E 02:59:23 14° E 03:00:07 10° E visible
05 Sep 3.4 04:38:24 51° WNW 04:39:46 81° N 04:45:07 10° E visible
06 Sep 4.5 03:44:33 40° E 03:44:33 40° E 03:47:58 10° E visible
06 Sep 3.4 05:23:34 18° W 05:27:38 85° SSW 05:32:58 10° ESE visible
07 Sep 6.3 02:50:46 10° E 02:50:46 10° E 02:50:50 10° E visible
07 Sep 3.3 04:29:47 67° WNW 04:30:30 85° N 04:35:51 10° E visible
08 Sep 5.1 03:36:05 30° E 03:36:05 30° E 03:38:42 10° E visible
08 Sep 3.5 05:15:07 24° W 05:18:17 66° SSW 05:23:33 10° ESE visible
09 Sep 3.4 04:21:30 76° SSE 04:21:30 76° SSE 04:26:32 10° ESE visible
09 Sep 4.3 06:01:05 10° W 06:05:49 33° SSW 06:10:33 10° SE visible
10 Sep 5.7 03:28:00 19° E 03:28:00 19° E 03:29:25 10° E visible
10 Sep 3.8 05:07:03 33° WSW 05:08:51 45° SSW 05:13:55 10° SE visible
